TimeMST,TemperatureF,Dew PointF,Humidity,Sea Level PressureIn,VisibilityMPH,Wind Direction,Wind SpeedMPH,Gust SpeedMPH,PrecipitationIn,Events,Conditions,WindDirDegrees,DateUTC
1:53 AM,28.0,21.0,75,30.17,10.0,NW,12.7,-,N/A,,Overcast,310,2013-02-27 08:53:00
2:53 AM,26.6,19.4,74,30.13,10.0,WNW,11.5,-,N/A,,Scattered Clouds,300,2013-02-27 09:53:00
3:53 AM,25.0,18.0,75,30.22,10.0,WNW,13.8,-,N/A,,Clear,300,2013-02-27 10:53:00
4:53 AM,21.2,17.6,86,30.16,10.0,WNW,11.5,-,N/A,,Clear,300,2013-02-27 11:53:00
5:53 AM,21.0,17.1,85,30.27,10.0,WNW,8.1,-,N/A,,Clear,290,2013-02-27 12:53:00
6:53 AM,21.9,18.0,85,30.28,10.0,West,11.5,-,N/A,,Clear,280,2013-02-27 13:53:00
7:53 AM,24.1,18.0,77,30.30,10.0,WNW,13.8,-,N/A,,Clear,300,2013-02-27 14:53:00
8:53 AM,30.0,18.0,61,30.29,10.0,WNW,15.0,24.2,N/A,,Clear,300,2013-02-27 15:53:00
9:53 AM,34.0,18.0,52,30.28,10.0,NW,20.7,27.6,N/A,,Clear,310,2013-02-27 16:53:00
10:53 AM,37.9,19.0,47,30.26,10.0,NW,24.2,29.9,N/A,,Partly Cloudy,320,2013-02-27 17:53:00
11:53 AM,39.9,18.0,41,30.25,10.0,NNW,20.7,-,N/A,,Partly Cloudy,330,2013-02-27 18:53:00
12:53 PM,39.9,17.1,40,30.23,10.0,NNW,19.6,26.5,N/A,,Partly Cloudy,330,2013-02-27 19:53:00
1:53 PM,42.1,14.0,32,30.23,10.0,NW,18.4,31.1,N/A,,Mostly Cloudy,320,2013-02-27 20:53:00
2:53 PM,41.0,10.9,29,30.23,10.0,NNW,19.6,27.6,N/A,,Scattered Clouds,330,2013-02-27 21:53:00
3:53 PM,41.0,10.0,28,30.25,10.0,NNW,21.9,26.5,N/A,,Mostly Cloudy,330,2013-02-27 22:53:00
4:53 PM,37.9,10.0,32,30.27,10.0,NNW,18.4,26.5,N/A,,Clear,330,2013-02-27 23:53:00
5:53 PM,33.1,10.9,40,30.29,10.0,NNW,10.4,-,N/A,,Clear,330,2013-02-28 00:53:00
6:53 PM,30.0,12.9,49,30.31,10.0,West,6.9,-,N/A,,Clear,260,2013-02-28 01:53:00
7:53 PM,27.0,17.1,66,30.32,10.0,West,10.4,-,N/A,,Clear,280,2013-02-28 02:53:00
8:53 PM,25.0,17.1,72,30.30,10.0,WNW,9.2,-,N/A,,Clear,290,2013-02-28 03:53:00
9:53 PM,19.9,14.0,78,30.31,10.0,Variable,4.6,-,N/A,,Clear,0,2013-02-28 04:53:00
10:53 PM,18.0,12.9,81,30.30,10.0,WNW,3.5,-,N/A,,Clear,300,2013-02-28 05:53:00
11:53 PM,17.1,12.0,81,30.30,10.0,NW,3.5,-,N/A,,Clear,310,2013-02-28 06:53:00